Date Time,Air Temp,Sky Temp,Clarity,Light Level,Rain Sensor,Readings
2021-07-25 00:00:03,23.1,10.7,12.5,0.0,-193.5,111
2021-07-25 00:05:03,23.2,10.8,12.4,0.0,-199.7,111
2021-07-25 00:10:03,23.3,10.1,13.2,0.0,-203.8,112
2021-07-25 00:15:04,23.2,8.9,14.3,0.0,-206.7,111
2021-07-25 00:20:04,23.1,9.4,13.7,0.0,-211.3,111
2021-07-25 00:25:04,23.0,10.1,12.9,0.0,-215.4,112
2021-07-25 00:30:04,23.0,10.0,13.0,0.0,-218.9,112
2021-07-25 00:35:04,23.0,11.0,12.0,0.0,-220.7,112
2021-07-25 00:40:04,23.1,12.0,11.1,0.0,-220.8,111
2021-07-25 00:45:04,23.2,11.4,11.8,0.0,-220.6,111
2021-07-25 00:50:04,23.2,10.4,12.8,0.0,-221.2,112
2021-07-25 00:55:04,23.1,10.7,12.4,0.0,-222.6,112
2021-07-25 01:00:04,23.1,11.0,12.1,0.0,-226.2,111
2021-07-25 01:05:04,23.1,11.1,11.9,0.0,-230.7,111
2021-07-25 01:10:04,23.1,11.4,11.7,0.0,-233.9,112
2021-07-25 01:15:04,23.1,11.4,11.8,0.0,-238.7,111
2021-07-25 01:20:04,23.1,11.2,12.0,0.0,-243.7,111
2021-07-25 01:25:04,23.0,10.4,12.6,0.0,-249.5,112
2021-07-25 01:30:04,22.8,9.8,13.0,0.0,-252.1,112
2021-07-25 01:35:04,22.7,9.2,13.5,0.0,-253.4,111
2021-07-25 01:40:04,22.7,9.2,13.5,0.0,-253.9,111
2021-07-25 01:45:04,22.7,9.9,12.9,0.0,-253.8,112
2021-07-25 01:50:04,22.8,10.6,12.2,0.0,-254.8,111
2021-07-25 01:55:04,22.8,10.7,12.2,0.0,-260.2,112
2021-07-25 02:00:04,22.8,9.6,13.2,0.0,-267.7,111
2021-07-25 02:05:04,22.6,9.5,13.1,0.0,-271.3,112
2021-07-25 02:10:04,22.5,10.1,12.4,0.0,-277.0,112
2021-07-25 02:15:04,22.5,10.1,12.4,0.0,-280.7,112
2021-07-25 02:20:04,22.5,9.8,12.6,0.0,-284.2,112
2021-07-25 02:25:04,22.4,10.1,12.4,0.0,-286.4,112
2021-07-25 02:30:04,22.4,10.8,11.6,0.0,-286.7,111
2021-07-25 02:35:04,22.4,11.1,11.2,0.0,-287.7,111
2021-07-25 02:40:04,22.4,11.0,11.4,0.0,-290.9,112
2021-07-25 02:45:04,22.4,10.8,11.6,0.0,-295.2,111
2021-07-25 02:50:04,22.4,10.0,12.3,0.0,-302.0,111
2021-07-25 02:55:04,22.3,9.4,12.9,0.0,-308.7,111
2021-07-25 03:00:04,22.3,9.0,13.3,0.0,-313.7,112
2021-07-25 03:05:04,22.3,8.7,13.6,0.0,-316.9,111
2021-07-25 03:10:04,22.2,8.4,13.8,0.0,-318.5,111
2021-07-25 03:15:04,22.1,7.9,14.2,0.0,-320.6,112
2021-07-25 03:20:04,22.1,6.9,15.2,0.0,-324.2,111
2021-07-25 03:25:04,22.0,6.4,15.7,0.0,-327.1,111
2021-07-25 03:30:04,22.0,6.7,15.3,0.0,-331.9,111
2021-07-25 03:35:04,22.0,7.5,14.5,0.1,-335.7,112
2021-07-25 03:40:04,22.0,7.9,14.1,0.1,-340.9,111
2021-07-25 03:45:04,22.0,8.3,13.7,0.0,-345.9,112
2021-07-25 03:50:04,22.0,8.7,13.3,0.0,-348.6,111
2021-07-25 03:55:04,22.1,9.0,13.0,0.0,-350.8,111
2021-07-25 04:00:04,22.1,9.1,12.9,0.0,-352.5,112
2021-07-25 04:05:04,22.0,8.8,13.2,0.0,-357.0,111
2021-07-25 04:10:04,22.0,8.5,13.5,0.1,-360.8,111
2021-07-25 04:15:04,21.9,8.2,13.8,0.1,-364.2,112
2021-07-25 04:20:04,21.9,8.2,13.7,0.2,-367.7,112
2021-07-25 04:25:04,21.8,8.5,13.3,0.3,-374.1,111
2021-07-25 04:30:04,21.9,8.8,13.1,0.5,-379.7,111
2021-07-25 04:35:04,22.0,9.5,12.5,0.9,-381.1,111
2021-07-25 04:40:04,22.0,9.9,12.1,1.7,-383.8,112
2021-07-25 04:45:04,22.1,9.9,12.2,3.2,-385.8,112
2021-07-25 04:50:04,22.1,9.2,12.9,5.6,-390.5,111
2021-07-25 04:55:04,22.1,8.7,13.4,9.2,-393.4,112
2021-07-25 05:00:04,22.0,8.4,13.6,13.8,-397.5,111
2021-07-25 05:05:04,22.0,8.8,13.2,18.3,-401.1,112
2021-07-25 05:10:04,22.0,9.2,12.9,21.9,-406.4,111
2021-07-25 05:15:04,22.1,9.6,12.5,24.6,-409.6,112
2021-07-25 05:20:04,22.0,9.4,12.6,26.5,-412.1,111
2021-07-25 05:25:04,22.0,9.4,12.6,27.7,-415.3,112
2021-07-25 05:30:04,22.0,9.4,12.6,28.7,-416.3,111
2021-07-25 05:35:04,22.0,9.5,12.5,29.5,-417.8,112
2021-07-25 05:40:04,22.0,9.6,12.4,30.2,-419.5,111
2021-07-25 05:45:04,22.1,9.6,12.4,30.6,-421.2,112
2021-07-25 05:50:04,22.1,9.5,12.6,30.9,-427.2,111
2021-07-25 05:55:04,22.1,9.8,12.2,31.0,-433.3,112
2021-07-25 06:00:04,22.1,9.9,12.2,31.1,-438.9,111
2021-07-25 06:05:03,22.2,10.5,11.7,31.2,-441.6,42
2021-07-25 06:10:03,22.2,11.0,11.2,31.3,-443.6,112
2021-07-25 06:15:03,22.3,12.0,10.3,31.3,-445.6,111
2021-07-25 06:20:03,22.4,10.6,11.8,31.6,-446.0,112
2021-07-25 06:25:03,22.5,10.8,11.7,31.7,-449.0,111
2021-07-25 06:30:03,22.5,11.0,11.5,31.7,-451.1,111
2021-07-25 06:35:03,22.6,10.6,11.9,31.8,-453.9,112
2021-07-25 06:40:03,22.6,10.9,11.7,31.9,-456.2,112
2021-07-25 06:45:03,22.7,10.9,11.8,31.9,-459.3,111
2021-07-25 06:50:03,22.7,10.8,11.9,31.9,-463.7,112
2021-07-25 06:55:03,22.7,11.2,11.5,31.9,-465.8,111
2021-07-25 07:00:03,22.3,11.7,10.7,31.9,-467.7,112
2021-07-25 07:05:03,22.8,11.6,11.2,31.9,-470.8,111
2021-07-25 07:10:04,22.8,11.7,11.0,31.9,-469.1,112
2021-07-25 07:15:04,22.6,11.9,10.7,32.0,-474.8,111
2021-07-25 07:20:04,22.6,12.7,9.8,31.8,-476.8,111
2021-07-25 07:25:04,22.6,12.5,10.0,31.9,-479.0,112
2021-07-25 07:30:04,22.6,12.0,10.5,32.0,-479.8,111
2021-07-25 07:35:04,22.6,11.9,10.7,32.1,-480.1,112
2021-07-25 07:40:04,22.7,12.1,10.6,32.2,-482.1,111
2021-07-25 07:45:04,22.8,11.6,11.1,32.2,-482.9,112
2021-07-25 07:50:04,22.6,10.5,12.1,32.3,-529.5,111
2021-07-25 07:55:04,22.5,11.1,11.4,32.3,-553.3,111
2021-07-25 08:00:04,22.4,11.6,10.8,32.3,-555.0,112
2021-07-25 08:05:04,22.4,11.1,11.3,32.3,-518.0,111
2021-07-25 08:10:04,22.5,11.0,11.5,32.3,-356.9,112
2021-07-25 08:15:04,22.4,11.4,11.0,32.2,-269.2,111
2021-07-25 08:20:04,22.4,12.2,10.2,32.2,-228.9,112
2021-07-25 08:25:04,22.3,11.5,10.8,32.2,-233.9,111
2021-07-25 08:30:04,22.3,11.5,10.7,32.2,-253.2,111
2021-07-25 08:35:04,22.3,11.3,10.9,32.2,-262.2,111
2021-07-25 08:40:04,22.2,11.6,10.6,32.2,-265.3,111
2021-07-25 08:45:04,22.2,12.2,10.1,32.2,-286.2,112
2021-07-25 08:50:04,22.3,12.6,9.7,32.2,-288.3,111
2021-07-25 08:55:04,22.6,13.2,9.4,32.2,-288.2,112
2021-07-25 09:00:04,22.8,12.0,10.8,32.3,-292.1,111
2021-07-25 09:05:04,23.0,11.9,11.0,32.3,-300.6,111
2021-07-25 09:10:04,23.2,12.4,10.8,32.4,-305.7,111
2021-07-25 09:15:04,23.5,12.6,10.9,32.4,-312.1,111
2021-07-25 09:20:04,23.8,13.6,10.2,32.4,-313.5,112
2021-07-25 09:25:04,24.0,14.1,9.9,32.4,-314.2,112
2021-07-25 09:30:04,23.9,14.3,9.6,32.4,-316.3,111
2021-07-25 09:35:04,23.8,14.3,9.5,32.4,-361.6,111
2021-07-25 09:40:04,23.6,13.9,9.6,32.4,-391.4,112
2021-07-25 09:45:04,23.3,13.9,9.4,32.4,-424.4,111
2021-07-25 09:50:04,23.1,14.1,9.0,32.4,-437.7,111
2021-07-25 09:55:04,23.0,14.1,8.9,32.3,-443.4,111
2021-07-25 10:00:04,22.8,13.9,9.0,32.3,-420.1,112
2021-07-25 10:05:04,22.8,14.3,8.5,32.4,-178.3,111
2021-07-25 10:10:04,22.8,14.3,8.5,32.3,-199.8,111
2021-07-25 10:15:04,22.9,13.9,9.0,32.5,-239.0,112
2021-07-25 10:20:04,23.0,14.3,8.6,32.5,-246.3,112
2021-07-25 10:25:04,23.1,14.6,8.5,32.5,-279.6,111
2021-07-25 10:30:04,23.2,14.6,8.6,32.5,-300.3,112
2021-07-25 10:35:04,23.5,14.4,9.0,32.5,-312.3,111
2021-07-25 10:40:04,23.6,15.0,8.6,32.5,-323.6,111
2021-07-25 10:45:04,23.9,15.3,8.7,32.5,-336.9,112
2021-07-25 10:50:04,24.1,15.1,9.0,32.4,-344.4,111
2021-07-25 10:55:04,24.1,14.8,9.3,32.4,-360.5,112
2021-07-25 11:00:04,24.1,14.8,9.3,32.4,-366.0,111
2021-07-25 11:05:04,24.0,15.1,9.0,32.4,-371.4,111
2021-07-25 11:10:04,24.2,15.5,8.7,32.5,-372.6,112
2021-07-25 11:15:04,24.5,15.8,8.7,32.5,-375.0,111
2021-07-25 11:20:04,24.8,15.8,9.0,32.5,-383.1,112
2021-07-25 11:25:04,24.9,15.4,9.4,32.4,-392.7,111
2021-07-25 11:30:04,24.8,15.3,9.5,32.4,-398.3,112
2021-07-25 11:35:04,24.7,15.6,9.2,32.4,-399.7,111
2021-07-25 11:40:04,24.7,14.9,9.8,32.3,-405.1,111
2021-07-25 11:45:04,24.4,14.6,9.8,32.3,-415.9,112
2021-07-25 11:50:04,23.8,14.9,8.9,32.5,-421.3,111
2021-07-25 11:55:04,24.6,14.5,10.1,32.5,-418.0,112
2021-07-25 12:00:04,24.6,13.3,11.2,32.5,-291.3,111
2021-07-25 12:05:04,24.3,17.9,6.4,32.5,-89.7,112
2021-07-25 12:10:04,24.0,18.4,5.6,32.5,-128.1,111
2021-07-25 12:15:04,24.0,18.4,5.6,32.5,-178.8,111
2021-07-25 12:20:04,24.3,16.0,8.3,32.6,-197.7,112
2021-07-25 12:25:04,25.1,15.4,9.7,32.6,-200.8,111
2021-07-25 12:30:04,25.6,16.2,9.4,32.5,-212.8,112
2021-07-25 12:35:04,25.6,15.8,9.8,32.5,-218.1,111
2021-07-25 12:40:04,25.4,15.3,10.0,32.5,-224.4,111
2021-07-25 12:45:04,25.4,15.2,10.2,32.5,-246.6,111
2021-07-25 12:50:04,25.5,15.4,10.1,32.5,-260.2,112
2021-07-25 12:55:04,25.4,15.7,9.7,32.4,-274.0,111
2021-07-25 13:00:04,25.0,14.5,10.5,32.4,-276.1,112
2021-07-25 13:05:04,24.5,15.4,9.1,32.5,-296.1,111
2021-07-25 13:10:04,24.8,15.5,9.2,32.5,-297.8,111
2021-07-25 13:15:04,25.3,16.2,9.2,32.5,-303.5,112
2021-07-25 13:20:04,25.6,15.6,9.9,32.4,-306.9,112
2021-07-25 13:25:04,25.4,15.0,10.4,32.5,-314.0,111
2021-07-25 13:30:04,25.6,15.6,10.0,32.5,-318.2,111
2021-07-25 13:35:04,26.3,15.6,10.6,32.6,-326.0,112
2021-07-25 13:40:04,26.6,14.5,12.0,32.5,-326.9,111
2021-07-25 13:45:04,26.5,14.4,12.1,32.5,-329.8,111
2021-07-25 13:50:04,26.4,14.9,11.5,32.5,-330.7,112
2021-07-25 13:55:04,26.2,15.2,11.0,32.5,-342.4,112
2021-07-25 14:00:04,26.0,14.7,11.3,32.5,-350.9,111
2021-07-25 14:05:04,26.4,15.9,10.5,32.6,-343.8,111
2021-07-25 14:10:04,27.0,15.5,11.5,32.6,-347.1,112
2021-07-25 14:15:04,27.1,15.3,11.9,32.6,-350.4,111
2021-07-25 14:20:04,27.6,19.0,8.6,32.6,-337.8,112
2021-07-25 14:25:04,28.9,18.0,10.9,32.6,-322.5,111
2021-07-25 14:30:04,29.6,17.0,12.6,32.6,-365.2,112
2021-07-25 14:35:04,29.3,15.8,13.5,32.6,-382.4,111
2021-07-25 14:40:04,28.7,15.7,13.0,32.6,-390.2,112
2021-07-25 14:45:04,28.2,16.7,11.5,32.6,-383.9,111
2021-07-25 14:50:04,28.0,17.0,11.0,32.5,-392.2,112
2021-07-25 14:55:04,27.6,16.2,11.4,32.5,-401.1,111
2021-07-25 15:00:04,27.3,15.1,12.2,32.5,-399.9,111
2021-07-25 15:05:04,26.2,16.7,9.5,32.6,-392.2,112
2021-07-25 15:10:04,28.5,20.8,7.6,32.6,-374.7,111
2021-07-25 15:15:04,29.3,16.9,12.5,32.5,-436.5,112
2021-07-25 15:20:04,28.8,17.1,11.7,32.5,-446.8,111
2021-07-25 15:25:04,28.7,16.7,12.0,32.6,-454.2,111
2021-07-25 15:30:04,29.0,17.0,12.0,32.5,-462.6,112
2021-07-25 15:35:04,28.6,16.4,12.3,32.4,-467.1,111
2021-07-25 15:40:04,27.7,15.9,11.9,32.3,-473.9,112
2021-07-25 15:45:04,26.9,15.8,11.1,32.3,-476.8,111
2021-07-25 15:50:04,26.2,14.7,11.5,32.4,-479.3,112
2021-07-25 15:55:04,25.4,14.1,11.3,32.4,-488.3,111
2021-07-25 16:00:04,24.7,14.5,10.2,32.4,-512.2,112
2021-07-25 16:05:04,24.3,14.8,9.5,32.4,-536.8,111
2021-07-25 16:10:04,24.3,16.1,8.2,32.4,-542.0,111
2021-07-25 16:15:04,24.2,18.0,6.1,32.5,-541.4,112
2021-07-25 16:20:04,24.1,16.1,7.9,32.5,-554.6,111
2021-07-25 16:25:04,24.0,12.5,11.5,32.5,-554.3,112
2021-07-25 16:30:04,24.1,12.8,11.2,32.4,-557.5,111
2021-07-25 16:35:04,24.3,15.1,9.2,32.4,-571.4,112
2021-07-25 16:40:04,24.5,14.1,10.4,32.4,-573.5,111
2021-07-25 16:45:04,24.5,13.2,11.3,32.4,-573.3,112
2021-07-25 16:50:04,24.2,12.4,11.8,32.4,-583.3,111
2021-07-25 16:55:04,24.0,11.7,12.3,32.4,-586.4,112
2021-07-25 17:00:04,23.9,12.6,11.3,32.4,-587.0,111
2021-07-25 17:05:04,23.7,12.8,11.0,32.4,-556.5,112
2021-07-25 17:10:04,23.6,14.9,8.7,32.4,-496.0,111
2021-07-25 17:15:04,23.5,13.7,9.8,32.4,-396.7,111
2021-07-25 17:20:04,23.5,12.8,10.7,32.5,-325.5,112
2021-07-25 17:25:04,23.4,11.1,12.4,32.5,-356.6,111
2021-07-25 17:30:04,23.8,11.3,12.5,32.5,-376.7,112
2021-07-25 17:35:04,23.9,13.0,10.8,32.5,-390.2,111
2021-07-25 17:40:04,24.0,12.7,11.4,32.5,-395.8,111
2021-07-25 17:45:04,23.9,12.9,11.0,32.5,-380.0,112
2021-07-25 17:50:04,23.8,12.1,11.7,32.4,-378.4,111
2021-07-25 17:55:04,23.6,12.0,11.6,32.4,-389.9,112
2021-07-25 18:00:04,23.5,12.7,10.8,32.4,-403.5,111
2021-07-25 18:05:04,23.5,14.7,8.8,32.4,-406.3,111
2021-07-25 18:10:04,23.5,15.9,7.6,32.5,-235.1,112
2021-07-25 18:15:04,23.5,14.5,9.0,32.5,-308.5,111
2021-07-25 18:20:04,23.6,13.0,10.6,32.5,-340.6,111
2021-07-25 18:25:04,23.7,13.3,10.4,32.5,-368.2,112
2021-07-25 18:30:04,23.8,12.8,11.0,32.5,-394.1,111
2021-07-25 18:35:04,24.1,12.7,11.4,32.5,-407.4,111
2021-07-25 18:40:04,24.6,12.5,12.0,32.5,-428.3,112
2021-07-25 18:45:04,24.9,12.7,12.3,32.5,-436.0,111
2021-07-25 18:50:04,25.3,12.4,12.9,32.5,-451.3,111
2021-07-25 18:55:04,25.5,11.9,13.6,32.5,-458.3,112
2021-07-25 19:00:04,25.4,12.1,13.3,32.5,-468.5,111
2021-07-25 19:05:04,25.4,12.3,13.2,32.5,-477.6,112
2021-07-25 19:10:04,25.4,12.1,13.3,32.5,-484.8,111
2021-07-25 19:15:04,25.3,12.1,13.2,32.4,-490.4,111
2021-07-25 19:20:04,25.2,12.5,12.7,32.5,-501.0,112
2021-07-25 19:25:04,25.4,13.3,12.1,32.5,-504.5,111
2021-07-25 19:30:04,25.7,13.2,12.5,32.5,-512.8,111
2021-07-25 19:35:04,25.9,13.4,12.4,32.5,-515.4,112
2021-07-25 19:40:04,25.9,12.9,13.0,32.4,-523.4,111
2021-07-25 19:45:04,25.5,12.1,13.3,32.3,-534.7,111
2021-07-25 19:50:04,24.9,11.7,13.3,32.3,-539.0,112
2021-07-25 19:55:04,24.6,11.6,13.1,32.2,-545.1,111
2021-07-25 20:00:04,24.5,11.5,12.9,32.1,-550.5,112
2021-07-25 20:05:04,24.4,11.5,12.9,32.1,-554.0,110
2021-07-25 20:10:04,24.3,11.6,12.7,32.1,-558.5,112
2021-07-25 20:15:04,24.3,12.1,12.2,32.1,-564.5,111
2021-07-25 20:20:04,24.3,14.2,10.1,31.9,-569.8,112
2021-07-25 20:25:04,24.2,14.6,9.7,31.8,-574.2,111
2021-07-25 20:30:04,24.3,15.1,9.1,31.3,-580.5,111
2021-07-25 20:35:04,24.3,14.8,9.4,31.2,-584.9,112
2021-07-25 20:40:04,24.3,13.0,11.2,31.2,-590.2,111
2021-07-25 20:45:04,24.3,10.5,13.7,31.2,-591.9,111
2021-07-25 20:50:04,24.1,8.7,15.4,31.1,-596.8,112
2021-07-25 20:55:04,24.0,8.8,15.3,30.6,-599.9,112
2021-07-25 21:00:04,23.9,8.6,15.3,29.7,-604.4,111
2021-07-25 21:05:04,23.8,10.4,13.4,28.3,-607.5,111
2021-07-25 21:10:04,23.7,11.4,12.3,25.8,-611.6,112
2021-07-25 21:15:04,23.7,9.7,14.0,23.4,-616.1,111
2021-07-25 21:20:04,23.6,10.8,12.8,19.8,-619.9,112
2021-07-25 21:25:04,23.6,11.1,12.5,15.2,-622.6,111
2021-07-25 21:30:04,23.6,8.9,14.7,10.9,-625.6,111
2021-07-25 21:35:04,23.6,10.2,13.3,6.5,-634.8,112
2021-07-25 21:40:04,23.6,11.6,12.0,3.6,-639.1,112
2021-07-25 21:45:04,23.5,9.8,13.7,2.3,-643.6,111
2021-07-25 21:50:04,23.6,9.9,13.7,1.2,-646.7,112
2021-07-25 21:55:04,23.7,10.8,12.9,0.7,-650.3,111
2021-07-25 22:00:04,23.8,11.1,12.7,0.4,-653.8,112
2021-07-25 22:05:04,23.8,11.4,12.4,0.2,-657.5,111
2021-07-25 22:10:04,23.8,11.7,12.1,0.1,-658.0,111
2021-07-25 22:15:04,23.8,11.7,12.1,0.0,-657.6,112
2021-07-25 22:20:05,23.8,12.4,11.5,0.0,-659.7,111
2021-07-25 22:25:05,23.8,12.0,11.8,0.0,-664.4,112
2021-07-25 22:30:05,23.7,10.8,13.0,0.0,-665.6,111
2021-07-25 22:35:05,23.6,9.9,13.7,0.0,-665.7,112
2021-07-25 22:40:05,23.4,10.0,13.5,0.0,-669.2,111
2021-07-25 22:45:05,23.4,10.3,13.1,0.0,-676.9,111
2021-07-25 22:50:05,23.5,10.2,13.3,0.0,-680.5,112
2021-07-25 22:55:05,23.6,10.2,13.4,0.0,-680.7,112
2021-07-25 23:00:05,23.6,9.8,13.8,0.0,-679.6,112
2021-07-25 23:05:05,23.5,10.9,12.6,0.0,-681.0,111
2021-07-25 23:10:05,23.5,13.2,10.3,0.0,-683.0,112
2021-07-25 23:15:05,23.6,14.4,9.1,0.0,-685.6,111
2021-07-25 23:20:05,23.7,12.1,11.6,0.0,-691.3,112
2021-07-25 23:25:05,23.8,11.3,12.5,0.0,-694.2,111
2021-07-25 23:30:05,23.8,12.0,11.8,0.0,-693.5,112
2021-07-25 23:35:05,23.8,12.7,11.1,0.0,-694.6,111
2021-07-25 23:40:05,23.7,12.3,11.5,0.0,-700.2,111
2021-07-25 23:45:05,23.7,12.5,11.3,0.0,-703.6,111
2021-07-25 23:50:05,23.7,13.4,10.3,0.0,-704.3,112
2021-07-25 23:55:05,23.6,12.8,10.8,0.0,-703.1,111
